Hourly Data Report for September 27, 2017

All times are specified in Local Standard Time (LST). Add 1 hour to adjust for Daylight Saving Time where and when it is observed.

CHARLOTTETOWN A
PRINCE EDWARD ISLAND

46°17'21.000" N
63°07'09.000" W
48.50 m
8300301
71706
YYG

Download Data

Hourly Data (September 2017)
Hourly Data Report for September 27, 2017
Temp Definition
°C
Dew Point Temp Definition
°C
Rel Hum Definition
%
Wind Dir Definition
10's deg

Wind Spd Definition
km/h
Visibility Definition
km
Stn Press Definition
kPa
Hmdx Definition


Wind Chill Definition


Weather Definition


TIME
00:00 Legend Double Dagger 13.6 10.4 81 6 16 24.1 101.26     LegendNANA
01:00 Legend Double Dagger 13.2 10.0 81 8 14 24.1 101.25     LegendNANA
02:00 Legend Double Dagger 13.0 9.7 80 11 11 24.1 101.22     Cloudy
03:00 Legend Double Dagger 12.6 9.4 81 9 14 24.1 101.16     Rain Showers
04:00 Legend Double Dagger 11.4 10.2 92 5 16 19.3 101.17     Thunderstorms,Rain Showers
05:00 Legend Double Dagger 11.2 10.2 94 5 8 24.1 101.26     Rain Showers
06:00 Legend Double Dagger 11.2 10.4 95 10 8 19.3 101.19     Rain Showers
07:00 Legend Double Dagger 11.2 10.4 95 12 14 16.1 101.12     Rain Showers
08:00 Legend Double Dagger 11.7 10.9 95 11 11 12.9 101.07     Rain Showers
09:00 Legend Double Dagger 12.3 11.6 96 12 8 16.1 101.02     Rain Showers
10:00 Legend Double Dagger 13.3 12.8 96 15 26 6.4 100.83     Thunderstorms,Rain Showers
11:00 Legend Double Dagger 15.4 14.7 96 17 20 19.3 100.79     Cloudy
12:00 Legend Double Dagger 17.5 15.7 89 18 23 24.1 100.67     LegendNANA
13:00 Legend Double Dagger 19.0 15.9 82 19 27 24.1 100.57     LegendNANA
14:00 Legend Double Dagger 19.4 16.4 83 18 22 24.1 100.52     Cloudy
15:00 Legend Double Dagger 19.9 16.9 83 20 25 24.1 100.44     LegendNANA
16:00 Legend Double Dagger 20.1 17.5 85 20 18 24.1 100.42 26   LegendNANA
17:00 Legend Double Dagger 20.0 17.7 86 21 16 24.1 100.37 26   Cloudy
18:00 Legend Double Dagger 19.3 17.4 88 19 21 24.1 100.28     LegendNANA
19:00 Legend Double Dagger 19.1 17.4 90 19 27 24.1 100.24     LegendNANA
20:00 Legend Double Dagger 18.8 17.3 91 19 19 24.1 100.20     Cloudy
21:00 Legend Double Dagger 18.9 17.5 92 19 25 24.1 100.07     LegendNANA
22:00 Legend Double Dagger 18.8 17.6 93 19 25 24.1 100.02     LegendNANA
23:00 Legend Double Dagger 19.1 18.1 94 19 23 24.1 99.95     Cloudy

Notes on Data Quality.

Legend

  • E = Estimated
  • M = Missing
  • NA = Not Available
  • ‡ = Partner data that is not subject to review by the National Climate Archives
Date modified: